Starlink 35256

operational
NORAD ID: 66011 Int'l Des: 2025-232 Owner: SPXS Country: US Constellation: starlink
LEOCIRCULAR

About Starlink 35256

Description loading...

Live Position

Loading 3D Globe...

Upcoming Passes

Altitude History

Altitude vs Time

uPlot chart will show altitude changes over time

Two-Line Element Set

1 66011C 25232G 25290.41090278 .00997050 00000+0 13811-2 0 2906
2 66011 53.1575 58.9187 0008720 285.9825 206.3482 16.04218323 12
Epoch: Oct 17, 2025 • Age: 61 hours

Current Status

Altitude 256.8 km
Velocity 7.75 km/s
Sub-Earth Point 32.42°N, 18.37°W
Launch Date Oct 16, 2025
Age 3 days
Type internet

Technical Details

Classification Payload
Mass 575.00 kg
Dry Mass 530.00 kg
Total Mass 575.00 kg
Length 0.30 m
Diameter 4.10 m
Span 29.00 m
Shape Box + pan
Manufacturer SPXS
Bus Type Starlink V2MO
Phase Status In Orbit
Owner/State SPXS/US

Large Constellations

Loading constellations...